Location: Cronhütte
(48.9135°N, 9.6869°E)
Time: 21:58:13
(UTC+00:00)

ARIANE 6 FM1 Upper Stage - Visible Passes

Search period start: 19 January 2026 00:00
Search period end: 29 January 2026 00:00
Orbit: 522 x 610 km, 62.0° (Epoch: 19 January)

Date Brightness Start Highest point End Pass type
(mag) Time Alt. Az. Time Alt. Az. Time Alt. Az.
20 Jan 5.5 19:12:43 10° SW 19:12:51 11° SW 19:12:51 11° SW visible
21 Jan 4.5 17:35:53 10° SSE 17:37:45 15° SE 17:37:45 15° SE visible
21 Jan 5.2 19:12:54 10° SW 19:13:48 16° SW 19:13:48 16° SW visible
22 Jan 3.9 17:35:13 10° S 17:38:25 23° ESE 17:38:38 22° ESE visible
22 Jan 4.9 19:13:11 10° WSW 19:14:42 21° WSW 19:14:42 21° WSW visible
23 Jan 3.4 17:34:50 10° S 17:38:28 32° SE 17:39:25 28° E visible
23 Jan 4.8 19:13:34 10° WSW 19:15:29 24° W 19:15:29 24° W visible
24 Jan 3.0 17:34:39 10° SSW 17:38:32 45° SE 17:40:07 29° ENE visible
24 Jan 4.8 19:14:02 10° W 19:16:10 24° WNW 19:16:10 24° WNW visible
25 Jan 2.6 17:34:36 10° SSW 17:38:39 65° SE 17:40:44 26° NE visible
25 Jan 4.9 19:14:33 10° W 19:16:46 22° WNW 19:16:46 22° WNW visible
26 Jan 2.5 17:34:42 10° SW 17:38:46 90° NW 17:41:16 22° NE visible
26 Jan 5.0 19:15:09 10° WNW 19:17:18 20° NW 19:17:18 20° NW visible
27 Jan 2.8 17:34:54 10° SW 17:38:56 65° NW 17:41:43 19° NE visible
27 Jan 5.1 19:15:47 10° WNW 19:17:45 17° NW 19:17:45 17° NW visible
28 Jan 3.3 17:35:11 10° WSW 17:39:08 48° NW 17:42:07 16° NNE visible
28 Jan 5.2 19:16:27 10° WNW 19:18:09 15° NNW 19:18:09 15° NNW visible
